Time,TemperatureF,DewpointF,PressureIn,WindDirection,WindDirectionDegrees,WindSpeedMPH,WindSpeedGustMPH,Humidity,HourlyPrecipIn,Conditions,Clouds,dailyrainin,SolarRadiationWatts/m^2,SoftwareType,DateUTC
2013-08-05 00:02:00,63.0,59.0,30.11,NNW,330,0.0,-999.0,88,-99.99,,,-99.99,0.000000,,2013-08-05 04:02:00,
2013-08-05 00:12:00,63.0,59.0,30.11,NNW,330,0.0,-999.0,88,-99.99,,,-99.99,0.000000,,2013-08-05 04:12:00,
2013-08-05 00:22:00,63.0,60.0,30.10,NNW,330,0.0,-999.0,89,-99.99,,,-99.99,0.000000,,2013-08-05 04:22:00,
2013-08-05 00:32:00,63.0,60.0,30.10,NNW,330,0.0,-999.0,89,-99.99,,,-99.99,0.000000,,2013-08-05 04:32:00,
2013-08-05 00:43:00,63.0,60.0,30.11,NNW,330,0.0,-999.0,89,-99.99,,,-99.99,0.000000,,2013-08-05 04:43:00,
2013-08-05 00:52:00,63.0,60.0,30.11,NNW,330,0.0,-999.0,89,-99.99,,,-99.99,0.000000,,2013-08-05 04:52:00,
2013-08-05 01:02:00,62.0,59.0,30.11,NNW,330,0.0,-999.0,90,-99.99,,,-99.99,0.000000,,2013-08-05 05:02:00,
2013-08-05 01:12:00,62.0,59.0,30.11,NNW,330,0.0,-999.0,90,-99.99,,,-99.99,0.000000,,2013-08-05 05:12:00,
2013-08-05 01:22:00,62.0,59.0,30.11,NNW,330,0.0,-999.0,90,-99.99,,,-99.99,0.000000,,2013-08-05 05:22:00,
2013-08-05 01:32:00,62.0,59.0,30.11,NNW,330,0.0,-999.0,90,-99.99,,,-99.99,0.000000,,2013-08-05 05:32:00,
2013-08-05 01:42:00,62.0,59.0,30.11,NNW,330,0.0,-999.0,90,-99.99,,,-99.99,0.000000,,2013-08-05 05:42:00,
2013-08-05 01:53:00,62.0,59.0,30.11,NNW,330,0.0,-999.0,89,-99.99,,,-99.99,0.000000,,2013-08-05 05:53:00,
2013-08-05 02:02:00,62.0,59.0,30.11,NNW,330,0.0,-999.0,89,-99.99,,,-99.99,0.000000,,2013-08-05 06:02:00,
2013-08-05 02:12:00,62.0,59.0,30.11,NNW,330,0.0,-999.0,89,-99.99,,,-99.99,0.000000,,2013-08-05 06:12:00,
2013-08-05 02:22:00,62.0,58.0,30.11,NNW,330,1.0,-999.0,86,-99.99,,,-99.99,0.000000,,2013-08-05 06:22:00,
2013-08-05 02:32:00,62.0,57.0,30.11,NNW,337,3.0,-999.0,84,-99.99,,,-99.99,0.000000,,2013-08-05 06:32:00,
2013-08-05 02:43:00,62.0,57.0,30.11,NNW,337,3.0,-999.0,84,-99.99,,,-99.99,0.000000,,2013-08-05 06:43:00,
2013-08-05 02:52:00,63.0,58.0,30.11,NNW,340,0.0,-999.0,83,-99.99,,,-99.99,0.000000,,2013-08-05 06:52:00,
2013-08-05 03:02:00,63.0,58.0,30.11,NNW,340,0.0,-999.0,83,-99.99,,,-99.99,0.000000,,2013-08-05 07:02:00,
2013-08-05 03:12:00,63.0,58.0,30.11,NNW,340,0.0,-999.0,83,-99.99,,,-99.99,0.000000,,2013-08-05 07:12:00,
2013-08-05 03:22:00,63.0,57.0,30.11,NNW,340,0.0,-999.0,82,-99.99,,,-99.99,0.000000,,2013-08-05 07:22:00,
2013-08-05 03:32:00,62.0,57.0,30.10,NNW,340,0.0,-999.0,83,-99.99,,,-99.99,0.000000,,2013-08-05 07:32:00,
2013-08-05 03:43:00,62.0,57.0,30.10,NNW,340,0.0,-999.0,83,-99.99,,,-99.99,0.000000,,2013-08-05 07:43:00,
2013-08-05 03:53:00,62.0,57.0,30.11,NNW,340,0.0,-999.0,84,-99.99,,,-99.99,0.000000,,2013-08-05 07:53:00,
2013-08-05 04:02:00,62.0,57.0,30.10,NNW,340,0.0,-999.0,83,-99.99,,,-99.99,0.000000,,2013-08-05 08:02:00,
2013-08-05 04:12:00,62.0,57.0,30.10,NNW,340,0.0,-999.0,83,-99.99,,,-99.99,0.000000,,2013-08-05 08:12:00,
2013-08-05 04:22:00,61.0,56.0,30.10,NNW,340,0.0,-999.0,84,-99.99,,,-99.99,0.000000,,2013-08-05 08:22:00,
2013-08-05 04:34:00,61.0,56.0,30.10,NNW,340,0.0,-999.0,84,-99.99,,,-99.99,0.000000,,2013-08-05 08:34:00,
2013-08-05 04:49:00,61.0,56.0,30.10,NNW,340,0.0,-999.0,84,-99.99,,,-99.99,0.000000,,2013-08-05 08:49:00,
2013-08-05 05:06:00,60.0,56.0,30.10,NNW,340,0.0,-999.0,87,-99.99,,,-99.99,0.000000,,2013-08-05 09:06:00,
2013-08-05 05:18:00,60.0,56.0,30.10,NNW,340,0.0,-999.0,87,-99.99,,,-99.99,0.000000,,2013-08-05 09:18:00,
2013-08-05 05:27:00,59.0,55.0,30.10,NNW,340,0.0,-999.0,88,-99.99,,,-99.99,0.000000,,2013-08-05 09:27:00,
2013-08-05 05:48:00,59.0,55.0,30.09,NNW,340,0.0,-999.0,88,-99.99,,,-99.99,0.000000,,2013-08-05 09:48:00,
2013-08-05 05:53:00,59.0,55.0,30.09,NNW,340,0.0,-999.0,88,-99.99,,,-99.99,0.000000,,2013-08-05 09:53:00,
2013-08-05 06:16:00,59.0,55.0,30.09,NNW,340,0.0,-999.0,88,-99.99,,,-99.99,0.000000,,2013-08-05 10:16:00,
2013-08-05 06:28:00,59.0,55.0,30.09,NNW,340,0.0,-999.0,88,-99.99,,,-99.99,0.000000,,2013-08-05 10:28:00,
2013-08-05 06:33:00,59.0,56.0,30.09,NNW,340,0.0,-999.0,89,-99.99,,,-99.99,0.000000,,2013-08-05 10:33:00,
2013-08-05 06:48:00,59.0,56.0,30.09,NNW,340,0.0,-999.0,89,-99.99,,,-99.99,0.000000,,2013-08-05 10:48:00,
2013-08-05 06:52:00,58.0,55.0,30.09,NNW,340,0.0,-999.0,90,-99.99,,,-99.99,0.000000,,2013-08-05 10:52:00,
2013-08-05 07:09:00,58.0,55.0,30.09,NNW,340,0.0,-999.0,90,-99.99,,,-99.99,5.000000,,2013-08-05 11:09:00,
2013-08-05 07:37:00,57.0,54.0,30.10,NNW,336,0.0,-999.0,90,-99.99,,,-99.99,19.000000,,2013-08-05 11:37:00,
2013-08-05 07:50:00,57.0,54.0,30.10,NNW,336,0.0,-999.0,90,-99.99,,,-99.99,19.000000,,2013-08-05 11:50:00,
2013-08-05 07:58:00,56.0,54.0,30.09,NW,313,0.0,-999.0,92,-99.99,,,-99.99,35.000000,,2013-08-05 11:58:00,
2013-08-05 08:07:00,57.0,55.0,30.10,NNW,341,0.0,-999.0,93,-99.99,,,-99.99,35.000000,,2013-08-05 12:07:00,
2013-08-05 08:17:00,57.0,55.0,30.10,NNW,341,0.0,-999.0,93,-99.99,,,-99.99,35.000000,,2013-08-05 12:17:00,
2013-08-05 08:27:00,58.0,56.0,30.11,NNW,341,0.0,-999.0,94,-99.99,,,-99.99,90.000000,,2013-08-05 12:27:00,
2013-08-05 08:33:00,60.0,58.0,30.10,WNW,288,0.0,-999.0,94,-99.99,,,-99.99,121.000000,,2013-08-05 12:33:00,
2013-08-05 09:01:00,62.0,59.0,30.10,WNW,290,1.0,-999.0,89,-99.99,,,-99.99,127.000000,,2013-08-05 13:01:00,
2013-08-05 09:14:00,63.0,59.0,30.10,WNW,290,0.0,-999.0,86,-99.99,,,-99.99,130.000000,,2013-08-05 13:14:00,
2013-08-05 09:38:00,64.0,59.0,30.10,WNW,291,4.0,-999.0,84,-99.99,,,-99.99,417.000000,,2013-08-05 13:38:00,
2013-08-05 09:44:00,64.0,59.0,30.10,WNW,291,4.0,-999.0,84,-99.99,,,-99.99,417.000000,,2013-08-05 13:44:00,
2013-08-05 09:54:00,66.0,60.0,30.10,WNW,291,1.0,-999.0,82,-99.99,,,-99.99,176.000000,,2013-08-05 13:54:00,
2013-08-05 10:06:00,66.0,60.0,30.09,WNW,291,1.0,-999.0,82,-99.99,,,-99.99,360.000000,,2013-08-05 14:06:00,
2013-08-05 10:17:00,66.0,60.0,30.09,WNW,291,1.0,-999.0,82,-99.99,,,-99.99,360.000000,,2013-08-05 14:17:00,
2013-08-05 10:28:00,66.0,61.0,30.09,WNW,290,2.0,-999.0,83,-99.99,,,-99.99,471.000000,,2013-08-05 14:28:00,
2013-08-05 10:38:00,68.0,62.0,30.09,WSW,238,4.0,-999.0,80,-99.99,,,-99.99,271.000000,,2013-08-05 14:38:00,
2013-08-05 10:48:00,68.0,62.0,30.09,WSW,238,4.0,-999.0,80,-99.99,,,-99.99,271.000000,,2013-08-05 14:48:00,
2013-08-05 10:54:00,68.0,61.0,30.09,South,175,2.0,-999.0,79,-99.99,,,-99.99,343.000000,,2013-08-05 14:54:00,
2013-08-05 11:08:00,69.0,61.0,30.09,South,178,3.0,-999.0,77,-99.99,,,-99.99,446.000000,,2013-08-05 15:08:00,
2013-08-05 11:15:00,69.0,61.0,30.09,South,178,3.0,-999.0,77,-99.99,,,-99.99,446.000000,,2013-08-05 15:15:00,
2013-08-05 11:47:00,70.0,62.0,30.08,South,183,3.0,-999.0,77,-99.99,,,-99.99,570.000000,,2013-08-05 15:47:00,
2013-08-05 11:59:00,71.0,62.0,30.09,South,187,2.0,-999.0,73,-99.99,,,-99.99,543.000000,,2013-08-05 15:59:00,
2013-08-05 12:18:00,72.0,61.0,30.08,SSW,203,0.0,-999.0,69,-99.99,,,-99.99,717.000000,,2013-08-05 16:18:00,
2013-08-05 12:33:00,73.0,62.0,30.07,SSW,209,2.0,-999.0,68,-99.99,,,-99.99,541.000000,,2013-08-05 16:33:00,
2013-08-05 12:45:00,73.0,62.0,30.07,SSW,209,2.0,-999.0,68,-99.99,,,-99.99,541.000000,,2013-08-05 16:45:00,
2013-08-05 13:00:00,74.0,62.0,30.07,SSW,209,0.0,-999.0,66,-99.99,,,-99.99,499.000000,,2013-08-05 17:00:00,
2013-08-05 13:06:00,74.0,62.0,30.07,SSW,209,0.0,-999.0,66,-99.99,,,-99.99,499.000000,,2013-08-05 17:06:00,
2013-08-05 13:17:00,74.0,61.0,30.06,SW,221,5.0,-999.0,64,-99.99,,,-99.99,513.000000,,2013-08-05 17:17:00,
2013-08-05 13:22:00,75.0,63.0,30.04,South,190,5.0,-999.0,66,-99.99,,,-99.99,438.000000,,2013-08-05 17:22:00,
2013-08-05 13:37:00,75.0,63.0,30.04,South,184,6.0,-999.0,66,-99.99,,,-99.99,348.000000,,2013-08-05 17:37:00,
2013-08-05 13:48:00,75.0,63.0,30.04,South,184,6.0,-999.0,66,-99.99,,,-99.99,348.000000,,2013-08-05 17:48:00,
2013-08-05 14:00:00,75.0,64.0,30.03,SSW,205,5.0,-999.0,68,-99.99,,,-99.99,824.000000,,2013-08-05 18:00:00,
2013-08-05 14:08:00,76.0,63.0,30.03,SSW,196,6.0,-999.0,65,-99.99,,,-99.99,974.000000,,2013-08-05 18:08:00,
2013-08-05 14:13:00,76.0,63.0,30.03,SSW,196,6.0,-999.0,65,-99.99,,,-99.99,974.000000,,2013-08-05 18:13:00,
2013-08-05 14:26:00,76.0,65.0,30.02,South,175,6.0,-999.0,68,-99.99,,,-99.99,1023.000000,,2013-08-05 18:26:00,
2013-08-05 14:44:00,76.0,63.0,30.02,South,188,6.0,-999.0,65,-99.99,,,-99.99,322.000000,,2013-08-05 18:44:00,
2013-08-05 14:54:00,74.0,62.0,30.03,WSW,244,7.0,-999.0,66,-99.99,,,-99.99,188.000000,,2013-08-05 18:54:00,
2013-08-05 15:05:00,74.0,62.0,30.03,WSW,244,7.0,-999.0,66,-99.99,,,-99.99,188.000000,,2013-08-05 19:05:00,
2013-08-05 15:14:00,74.0,64.0,30.03,WSW,237,6.0,-999.0,70,-99.99,,,-99.99,158.000000,,2013-08-05 19:14:00,
2013-08-05 15:26:00,74.0,64.0,30.01,SW,230,5.0,-999.0,71,-99.99,,,-99.99,269.000000,,2013-08-05 19:26:00,
2013-08-05 15:38:00,74.0,64.0,30.02,SSW,205,3.0,-999.0,72,-99.99,,,-99.99,369.000000,,2013-08-05 19:38:00,
2013-08-05 15:50:00,74.0,64.0,30.02,SSW,205,3.0,-999.0,72,-99.99,,,-99.99,369.000000,,2013-08-05 19:50:00,
2013-08-05 16:15:00,75.0,64.0,30.01,SSW,205,0.0,-999.0,69,-99.99,,,-99.99,257.000000,,2013-08-05 20:15:00,
2013-08-05 16:37:00,75.0,65.0,30.01,SSW,205,0.0,-999.0,70,-99.99,,,-99.99,207.000000,,2013-08-05 20:37:00,
2013-08-05 16:48:00,75.0,65.0,30.01,SSW,205,0.0,-999.0,70,-99.99,,,-99.99,207.000000,,2013-08-05 20:48:00,
2013-08-05 17:02:00,74.0,64.0,30.00,SSW,205,0.0,-999.0,72,-99.99,,,-99.99,251.000000,,2013-08-05 21:02:00,
2013-08-05 17:08:00,74.0,66.0,29.99,SSW,205,0.0,-999.0,75,-99.99,,,-99.99,200.000000,,2013-08-05 21:08:00,
2013-08-05 17:19:00,74.0,66.0,29.99,SSW,205,0.0,-999.0,75,-99.99,,,-99.99,200.000000,,2013-08-05 21:19:00,
2013-08-05 17:26:00,74.0,64.0,29.98,SSW,205,1.0,-999.0,72,-99.99,,,-99.99,163.000000,,2013-08-05 21:26:00,
2013-08-05 17:34:00,74.0,64.0,29.98,SSW,205,1.0,-999.0,72,-99.99,,,-99.99,163.000000,,2013-08-05 21:34:00,
2013-08-05 17:47:00,74.0,65.0,29.98,SSW,203,4.0,-999.0,74,-99.99,,,-99.99,325.000000,,2013-08-05 21:47:00,
2013-08-05 17:54:00,74.0,64.0,29.98,SSW,200,2.0,-999.0,71,-99.99,,,-99.99,214.000000,,2013-08-05 21:54:00,
2013-08-05 18:05:00,74.0,65.0,29.97,SSW,213,0.0,-999.0,74,-99.99,,,-99.99,197.000000,,2013-08-05 22:05:00,
2013-08-05 18:15:00,74.0,65.0,29.97,SSW,213,0.0,-999.0,74,-99.99,,,-99.99,197.000000,,2013-08-05 22:15:00,
2013-08-05 18:27:00,74.0,65.0,29.98,SW,214,1.0,-999.0,73,-99.99,,,-99.99,113.000000,,2013-08-05 22:27:00,
2013-08-05 18:37:00,74.0,64.0,29.99,SW,214,0.0,-999.0,72,-99.99,,,-99.99,239.000000,,2013-08-05 22:37:00,
2013-08-05 18:44:00,74.0,64.0,29.99,SW,214,0.0,-999.0,72,-99.99,,,-99.99,239.000000,,2013-08-05 22:44:00,
2013-08-05 18:53:00,75.0,65.0,29.98,SW,214,0.0,-999.0,70,-99.99,,,-99.99,155.000000,,2013-08-05 22:53:00,
2013-08-05 19:07:00,75.0,65.0,29.98,SW,215,0.0,-999.0,71,-99.99,,,-99.99,105.000000,,2013-08-05 23:07:00,
2013-08-05 19:16:00,75.0,65.0,29.98,SW,215,0.0,-999.0,71,-99.99,,,-99.99,105.000000,,2013-08-05 23:16:00,
2013-08-05 19:27:00,75.0,67.0,29.98,SW,214,0.0,-999.0,75,-99.99,,,-99.99,39.000000,,2013-08-05 23:27:00,
2013-08-05 19:33:00,74.0,66.0,29.98,SW,219,0.0,-999.0,77,-99.99,,,-99.99,11.000000,,2013-08-05 23:33:00,
2013-08-05 19:46:00,74.0,66.0,29.98,SW,219,0.0,-999.0,77,-99.99,,,-99.99,11.000000,,2013-08-05 23:46:00,
2013-08-05 20:02:00,72.0,64.0,29.98,WSW,240,10.0,-999.0,76,-99.99,,,-99.99,33.000000,,2013-08-06 00:02:00,
2013-08-05 20:15:00,70.0,63.0,29.97,WSW,238,9.0,-999.0,78,-99.99,,,-99.99,95.000000,,2013-08-06 00:15:00,
2013-08-05 20:24:00,70.0,63.0,29.97,SW,233,9.0,-999.0,78,-99.99,,,-99.99,40.000000,,2013-08-06 00:24:00,
2013-08-05 20:37:00,69.0,63.0,29.97,WSW,242,7.0,-999.0,80,-99.99,,,-99.99,25.000000,,2013-08-06 00:37:00,
2013-08-05 20:45:00,69.0,63.0,29.97,WSW,242,7.0,-999.0,80,-99.99,,,-99.99,25.000000,,2013-08-06 00:45:00,
2013-08-05 20:57:00,68.0,62.0,29.96,WSW,238,3.0,-999.0,80,-99.99,,,-99.99,19.000000,,2013-08-06 00:57:00,
2013-08-05 21:14:00,68.0,62.0,29.96,WSW,238,0.0,-999.0,82,-99.99,,,-99.99,9.000000,,2013-08-06 01:14:00,
2013-08-05 21:28:00,68.0,62.0,29.96,WSW,238,2.0,-999.0,82,-99.99,,,-99.99,0.000000,,2013-08-06 01:28:00,
2013-08-05 21:39:00,67.0,61.0,29.96,WSW,238,1.0,-999.0,82,-99.99,,,-99.99,0.000000,,2013-08-06 01:39:00,
2013-08-05 21:49:00,67.0,61.0,29.96,WSW,238,1.0,-999.0,82,-99.99,,,-99.99,0.000000,,2013-08-06 01:49:00,
2013-08-05 22:02:00,67.0,62.0,29.96,WSW,238,3.0,-999.0,84,-99.99,,,-99.99,0.000000,,2013-08-06 02:02:00,
2013-08-05 22:09:00,66.0,62.0,29.95,WSW,238,0.0,-999.0,86,-99.99,,,-99.99,0.000000,,2013-08-06 02:09:00,
2013-08-05 22:15:00,66.0,62.0,29.95,WSW,238,0.0,-999.0,86,-99.99,,,-99.99,0.000000,,2013-08-06 02:15:00,
2013-08-05 22:27:00,65.0,61.0,29.95,WSW,238,0.0,-999.0,87,-99.99,,,-99.99,0.000000,,2013-08-06 02:27:00,
2013-08-05 22:32:00,65.0,61.0,29.95,WSW,238,0.0,-999.0,87,-99.99,,,-99.99,0.000000,,2013-08-06 02:32:00,
2013-08-05 22:46:00,65.0,62.0,29.96,SW,223,3.0,-999.0,89,-99.99,,,-99.99,0.000000,,2013-08-06 02:46:00,
2013-08-05 22:53:00,65.0,62.0,29.96,SW,223,3.0,-999.0,90,-99.99,,,-99.99,0.000000,,2013-08-06 02:53:00,
2013-08-05 23:01:00,65.0,62.0,29.96,SW,223,3.0,-999.0,90,-99.99,,,-99.99,0.000000,,2013-08-06 03:01:00,
2013-08-05 23:16:00,64.0,61.0,29.95,SW,223,2.0,-999.0,91,-99.99,,,-99.99,0.000000,,2013-08-06 03:16:00,
2013-08-05 23:35:00,64.0,61.0,29.96,SW,223,0.0,-999.0,91,-99.99,,,-99.99,0.000000,,2013-08-06 03:35:00,
2013-08-05 23:45:00,64.0,61.0,29.96,SW,223,0.0,-999.0,91,-99.99,,,-99.99,0.000000,,2013-08-06 03:45:00,
2013-08-05 23:52:00,64.0,62.0,29.96,SW,223,0.0,-999.0,92,-99.99,,,-99.99,0.000000,,2013-08-06 03:52:00,